Regional Weather Roundup
Issued by NWS

Home | Current Version | Previous Version | Text Only | Print | Product List | Glossary On
Versions: 1 2 3 4 5 6 7 8 9 10 11 12 13 14 15 16 17 18 19 20 21 22 23 24 25 26 27 28 29 30 31 32 33 34 35 36 37 38 39 40 41 42 43 44 45 46 47 48 49 50
000
ASUS43 KLMK 181002
RWRKY
KENTUCKY REGIONAL WEATHER ROUNDUP
NATIONAL WEATHER SERVICE LOUISVILLE KY
600 AM EDT SAT APR 18 2015

NOTE "FAIR" INDICATES FEW OR NO CLOUDS BELOW 12,000 FEET
WITH NO SIGNIFICANT WEATHER AND/OR OBSTRUCTIONS TO VISIBILITY.

KYZ001>023-026-027-061>063-070>075-181100-
WESTERN AND SOUTH CENTRAL KENTUCKY

CITY           SKY/WX    TMP DP  RH WIND       PRES   REMARKS
PADUCAH        CLOUDY    56  54  93 CALM      30.00R
HENDERSON        N/A     54  52  94 CALM      30.00S VSB 1/2
OWENSBORO      PTCLDY    56  56 100 CALM      30.01S FOG
HOPKINSVILLE   MOCLDY    54  54  98 SW3       30.01R
BOWLING GREEN  FOG       53  51  93 CALM      30.01F VSB 1/4
GLASGOW        NOT AVBL
$$

KYZ024-025-028>034-038-045-046-053-181100-
NORTH CENTRAL KENTUCKY

CITY           SKY/WX    TMP DP  RH WIND       PRES   REMARKS
LOUISVILLE/SDF CLEAR     57  54  89 CALM      30.02F
LOUISVILLE/LOU CLEAR     56  54  93 CALM      30.02F FOG
FORT KNOX      CLEAR     54  53  95 NE1       30.01S
$$

KYZ035>037-039>044-047>052-055>060-089>105-181100-
NORTHEAST KENTUCKY

CITY           SKY/WX    TMP DP  RH WIND       PRES   REMARKS
LEXINGTON      CLEAR     54  52  93 NE6       30.04S
COVINGTON      CLEAR     54  43  66 CALM      30.04S
FRANKFORT      CLEAR     50  48  93 CALM      30.02F
$$

KYZ054-064>069-076>088-106>120-181100-
SOUTHEAST KENTUCKY

CITY           SKY/WX    TMP DP  RH WIND       PRES   REMARKS
JACKSON        CLEAR     59  50  72 CALM      30.04F
LONDON         CLEAR     55  50  83 CALM      30.02F
SOMERSET       NOT AVBL
MIDDLESBORO    CLOUDY    53  53 100 CALM      30.04R
MONTICELLO     FOG       50  50 100 CALM      30.05F VSB<1/4
$$




USA.gov is the U.S. government's official web portal to all federal, state and local government web resources and services.